Regional Weather Roundup
Issued by NWS Grand Forks, ND

Home | Current Version | Previous Version | Graphics & Text | Print | Product List | Glossary On
Versions: 1 2 3 4 5 6 7 8 9 10 11 12 13 14 15 16 17 18 19 20 21 22 23 24 25 26 27 28 29 30 31 32 33 34 35 36 37 38 39 40 41 42 43 44 45 46 47 48 49 50
000
ASUS43 KFGF 150131
RWRFGF
PRAIRIE TO PINES  WEATHER ROUNDUP
NATIONAL WEATHER SERVICE EASTERN NORTH DAKOTA/GRAND FORKS ND
800 PM CDT SUN SEP 14 2014

 **SATELLITE DATA USED TO AUGMENT SKY COVER AT AUTOMATED STATIONS**
 *****  WEATHER ACROSS EASTERN NORTH DAKOTA  *****

CITY           SKY/WX    TMP DP  RH WIND       PRES   REMARKS
GRAND FORKS    CLOUDY    52  44  74 NW3       30.12R
GRAND FRKS AFB CLOUDY    51  44  78 NW5       30.13R
GRAND FRKS NWS   N/A     50 N/A N/A MISG        N/A
DEVILS LAKE    MOCLDY    48  36  61 NW6       30.13R
FARGO          CLOUDY    54  43  66 NW5       30.12S
WAHPETON ARPT  PTCLDY    50  41  71 N5        30.13S
$$

 ***** WEATHER ACROSS CENTRAL AND WESTERN NORTH DAKOTA  *****

CITY           SKY/WX    TMP DP  RH WIND       PRES   REMARKS
BISMARCK       MOCLDY    54  34  46 N7        30.16R
MINOT          MOCLDY    50  37  61 CALM      30.15S
JAMESTOWN      CLOUDY    50  44  80 CALM      30.13S
MINOT AFB      MOCLDY    51  35  52 N2        30.15R
GARRISON         N/A     51  37  58 NE3       30.16R
WILLISTON      MOCLDY    54  31  41 CALM      30.16S
DICKINSON      CLOUDY    53  34  48 CALM      30.15R
HETTINGER      CLOUDY    51  35  54 NE6       30.15S
$$

 *****  OTHER AIRPORT OBSERVATIONS IN OUR AREA  *****

CITY           SKY/WX    TMP DP  RH WIND       PRES   REMARKS
WALHALLA         N/A     50  41  71 N6        30.14R
GRAFTON AIRPOR CLOUDY    50  41  71 N5        30.13R
VALLEY CITY AR CLOUDY    48  45  87 NW3       30.14R
CANDO          CLOUDY    48  39  71 N3        30.15S
CAVALIER APRT  CLOUDY    50  39  66 N3        30.13R
GWINNER        CLEAR     50  39  66 NW5       30.15R
SHEYENNE NWR     N/A     52  43  72 CALM      29.95S
ROLLA          CLOUDY    46  39  76 NW3       30.16R
 ***** THE ABOVE OBSERVATIONS ARE NON NWS ARE NOT QUALITY
       CONTROLLED AND MAY MIS-REPORT RAIN FOR SNOW...
$$

  *****  WEATHER ACROSS NORTHERN MINNESOTA  *****

CITY           SKY/WX    TMP DP  RH WIND       PRES   REMARKS
FLAG ISLAND    CLOUDY    50  45  81 NW14      30.06R
WARROAD        CLOUDY    48  45  87 CALM      30.09S
ROSEAU         CLOUDY    50  45  81 W6        30.10R
HALLOCK        CLOUDY    50  39  66 NW5       30.12R
THF RVR FALLS  CLOUDY    50  43  76 CALM      30.12R
BAUDETTE       CLOUDY    49  46  90 VRB3      30.08R
WASKISH        CLOUDY    52  46  82 W5        30.09R
CROOKSTON      CLOUDY    50  45  81 CALM      30.13S
STEPHEN NDAWN    N/A     52  43  71 NW5         N/A
GREENBUSH NDAW   N/A     50  41  71 NW6         N/A
$$
  *****  WEATHER ACROSS CENTRAL AND WEST MINNESOTA  *****

CITY           SKY/WX    TMP DP  RH WIND       PRES   REMARKS
FOSSTON        CLOUDY    46  43  87 CALM      30.13R
BEMIDJI        MOCLDY    47  43  86 W9        30.12R
PARK RAPIDS    CLEAR     43  39  86 W7        30.11S
ELBOW LAKE     MOCLDY    49  44  81 SW5       30.12S
WADENA         PTCLDY    46  45  93 CALM      30.12S
DETROIT LAKES  PTCLDY    50  45  81 CALM      30.13S
MOORHEAD       CLOUDY    54  46  76 CALM      30.14R
FERGUS FALLS   PTCLDY    52  43  71 CALM      30.13S
MORRIS MN      MOCLDY    52  45  76 NW3       30.12S
STAPLES        MOCLDY    48  45  87 CALM      30.12S
$$
  *****  WEATHER ELSEWHERE ACROSS MINNESOTA  *****

CITY           SKY/WX    TMP DP  RH WIND       PRES   REMARKS
DULUTH         PTCLDY    48  41  76 W7        30.08R
INTRNTL FALLS  CLOUDY    48  44  86 NW7       30.05R
ELY            CLOUDY    46  43  87 CALM      30.05R
CLOQUET        PTCLDY    48  43  81 W6        30.09R
WHEATON        MOCLDY    48  43  81 W5        30.15R
BRAINERD       CLOUDY    51  44  77 W3        30.12S
HIBBING        MOCLDY    51  45  79 CALM      30.07R
ALEXANDRIA     PTCLDY    52  43  71 CALM      30.13S
SAINT CLOUD    MOCLDY    54  44  69 NW5       30.12S
MINNEAPOLIS    MOCLDY    57  41  55 W5        30.12R
$$

  *****  WEATHER ACROSS SOUTH DAKOTA  *****

CITY           SKY/WX    TMP DP  RH WIND       PRES   REMARKS
SIOUX FALLS    CLOUDY    55  46  71 NE8       30.12R
BROOKINGS      NOT AVBL
WATERTOWN      CLOUDY    50  43  77 SW8       30.13S
HURON          CLOUDY    49  46  90 S3        30.14F
SISSETON         N/A     50  44  80 NW6       30.12S
ABERDEEN       MOCLDY    50  44  80 NE3       30.14R
MITCHELL       CLOUDY    53  45  74 NE7       30.12F
PIERRE         CLOUDY    53  42  66 NE5       30.12S
MOBRIDGE       CLOUDY    51  43  74 NE3       30.13R
RAPID CITY     MOCLDY    48  39  71 E7        30.13R
$$

  *****  SOME WEATHER IN NEARBY STATES *****

CITY           SKY/WX    TMP DP  RH WIND       PRES   REMARKS
GLASGOW MT     PTCLDY    53  32  44 S5        30.15R
GREAT FALLS MT CLEAR     60  38  43 NE9       30.12S
CHEYENNE WY    CLOUDY    60  49  66 NE10      30.11S
SCOTTSBLUFF NE PTCLDY    62  51  67 N9        30.04R
OMAHA NE       MOCLDY    64  53  67 E5        30.07S
DES MOINES IA  MOCLDY    64  52  64 S5        30.11F
DAVENPORT IA   CLEAR     55  45  68 S6        30.16S
CHICAGO IL     PTCLDY    59  44  57 SW5       30.17S
EAU CLAIRE WI  MOCLDY    55  41  59 CALM      30.10R
LA CROSSE WI   MOCLDY    63  50  62 NW7       30.10R
$$

  *****  SOME NATIONAL WEATHER *****

CITY           SKY/WX    TMP DP  RH WIND       PRES   REMARKS
LA GUARDIA NY  MOCLDY    67  43  41 E8        30.19R
RALEIGH NC     MOCLDY    64  59  83 E5        30.24R
ATLANTA GA     CLOUDY    68  65  90 E10       30.20R
NEW ORLEANS LA PTCLDY    85  72  65 E7        30.06R HX  91
OKLAHOMA CITY  LGT RAIN  68  65  90 S8        30.11F
ALBUQUERQUE NM PTCLDY    77  51  40 S14G23    30.15R
SALT LAKE CITY PTCLDY    84  36  18 N7        29.98F
LOS ANGELES CA MOSUNNY   79  63  57 SW13      29.69S
BOISE ID       CLEAR     82  35  18 W9        29.91S
SEATTLE WA     SUNNY     83  40  21 NW5       29.86S
$$

*** WEATHER ACROSS MANITOBA...SASKATCHEWAN AND ONTARIO ***
                ***ONTARIO***

CITY           SKY/WX    TMP DP  RH WIND       PRES   REMARKS
GERALDTON      LGT RAIN  46  46 100 CALM      29.92R
THUNDER BAY    MOCLDY    50  46  87 W6        29.98R
SIOUX LOOKOUT  LGT RAIN  45  45 100 CALM      30.00S
TORONTO        MOCLDY    57  46  67 S5        30.22S
BIG TROUT LK   CLOUDY    41  39  93 CALM      29.97S
PICKLE LAKE    MOCLDY    48  41  76 W5        29.96R
DRYDEN         CLOUDY    46  45  93 SW5       30.02S
KENORA         MOCLDY    48  45  87 NW5       30.05R
$$
                *** MANITOBA***

CITY           SKY/WX    TMP DP  RH WIND       PRES   REMARKS
BRANDON        PTCLDY    48  39  71 W3        30.14R
DAUPHIN        CLEAR     46  39  76 SW7       30.10R
ISLAND LAKE    MOCLDY    48  36  61 W6        30.01S
PILOT MOUND      N/A     48  37  66 NW5         N/A
THE PAS        PTCLDY    54  34  47 W8        29.96S
THOMPSON       MOCLDY    48  39  71 SW3       29.91S
WINNIPEG       MOCLDY    48  39  71 N3        30.12R
LYNN LAKE      CLEAR     46  32  57 MISG      29.93R
CHURCHILL      MOCLDY    45  39  81 SW5       29.82S
GILLAM         CLOUDY    48  37  66 SW8       29.88F
$$
                ***SASKATCHEWAN***

CITY           SKY/WX    TMP DP  RH WIND       PRES   REMARKS
ESTEVAN        CLOUDY    48  39  71 SW2       30.15S
KINDERSLEY     PTCLDY    59  37  44 NW5       30.08R
LLOYDMINSTER   PTCLDY    57  39  51 CALM      30.03S
PRINCE ALBERT  PTCLDY    55  37  50 SW6       30.04S
REGINA         PTCLDY    54  37  54 CALM      30.13S
YORKTON        MOCLDY    50  37  62 W6        30.10S
N. BATTLEFORD  CLEAR     57  37  47 W3        30.07R
LA RONGE       PTCLDY    54  36  50 NW5       29.99S
SASKATOON      PTCLDY    55  34  44 S5        30.09S
SWIFT CURRENT  CLEAR     55  34  44 NW2       30.10
$$
NOTE: THESE ARE AUTOMATED STATIONS WITH LIMITED QUALITY CONTROL
      "FAIR" INDICATES FEW OR NO CLOUDS BELOW 12,000 FEET WITH NO
      SIGNIFICANT WEATHER AND/OR OBSTRUCTIONS TO VISIBILITY.
      SKY/WX - SKY CONDITION AND SIGNIFICANT WEATHER.
      TMP - AIR TEMPERATURE.    DP   - DEWPOINT TEMPERATURE.
      RH  - RELATIVE HUMIDITY.  PRES - PRESSURE.
      HX  - HEAT INDEX.         WCI  - WIND CHILL INDEX.
$



USA.gov is the U.S. government's official web portal to all federal, state and local government web resources and services.